Hot Springs, VA

1:40 AM EST on November 25, 2017 (GMT -0500)
Ingalls

Weather History for KHSP - September, 2013

Change the Weather History Date:

Saturday, September 21, 2013

  Actual Average Record
Temperature  
Mean Temperature 56 °F -  
Max Temperature 60 °F 64 °F 77 °F (1998)
Min Temperature 53 °F 50 °F 42 °F (2006)
Degree Days  
Heating Degree Days 8    
Growing Degree Days 6 (Base 50)    
Moisture  
Dew Point 57 °F    
Average Humidity 100    
Maximum Humidity 100    
Minimum Humidity 100    
Precipitation  
Precipitation 1.03 in - - ()
Sea Level Pressure  
Sea Level Pressure 29.94 in    
Wind  
Wind Speed 9 mph (SSW)    
Max Wind Speed 21 mph    
Max Gust Speed 28 mph    
Visibility 1 miles    
Events Fog , Rain    
Averages and records for this station are not official NWS values.
T = Trace of Precipitation, MM = Missing Value Source: NWS Daily Summary

Daily Weather History Graph

Daily Weather History Graph

Search for Another Location

Airport or City:

Trip Planner

Search our weather history database for the weather conditions in past years. The results will help you decide how hot, cold, wet, or windy it might be!

Date:

Astronomy

Sep. 21, 2013 Rise Set
Actual Time 7:06 AM EDT 7:17 PM EDT
Civil Twilight 6:40 AM EDT 7:43 PM EDT
Nautical Twilight 6:09 AM EDT 8:14 PM EDT
Astronomical Twilight 5:38 AM EDT 8:45 PM EDT
Moon 8:30 PM EDT (9/21) 9:20 AM EDT (9/21)
Length of Visible Light 13h 03m
Length of Day
12h 11m
Waning Gibbous, 94% of the Moon is Illuminated
Sep 21
Waning Gibbous
Sep 26
Last Quarter
Oct 4
New
Oct 11
First Quarter
Oct 18
Full

Hourly Weather History & Observations

Time (EDT) Temp. Dew Point Humidity Pressure Visibility Wind Dir Wind Speed Gust Speed Precip Events Conditions
12:15 AM 57.2 °F 57.2 °F 100% 30.09 in 0.2 mi South 10.4 mph - N/A Fog Fog
12:35 AM 57.2 °F 57.2 °F 100% 30.09 in 0.2 mi South 9.2 mph - N/A Fog Fog
12:55 AM 57.2 °F 57.2 °F 100% 30.09 in 5.0 mi SSW 8.1 mph - N/A   Overcast
1:15 AM 57.2 °F 57.2 °F 100% 30.08 in 7.0 mi South 9.2 mph - N/A   Overcast
1:35 AM 57.2 °F 57.2 °F 100% 30.08 in 7.0 mi South 10.4 mph - N/A   Overcast
1:55 AM 57.2 °F 57.2 °F 100% 30.08 in 3.0 mi South 10.4 mph - N/A   Overcast
2:15 AM 57.2 °F 57.2 °F 100% 30.07 in 0.2 mi South 10.4 mph - N/A Fog Fog
2:35 AM 57.2 °F 57.2 °F 100% 30.07 in 0.2 mi South 8.1 mph - N/A Fog Fog
2:55 AM 57.2 °F 57.2 °F 100% 30.06 in 0.2 mi SSW 5.8 mph - N/A Fog Fog
3:15 AM 59.0 °F 59.0 °F 100% 30.05 in 0.2 mi SSW 5.8 mph - N/A Rain Heavy Rain
3:35 AM 59.0 °F 59.0 °F 100% 30.05 in 0.2 mi South 4.6 mph - N/A   Drizzle
3:55 AM 59.0 °F 59.0 °F 100% 30.04 in 0.2 mi SSW 5.8 mph - N/A   Drizzle
4:15 AM 60.8 °F 60.8 °F 100% 30.04 in 1.5 mi SSW 5.8 mph - N/A   Light Drizzle
4:35 AM 59.0 °F 59.0 °F 100% 30.03 in 0.2 mi South 5.8 mph - N/A Fog Fog
4:55 AM 59.0 °F 59.0 °F 100% 30.02 in 0.2 mi South 5.8 mph - N/A Rain Rain
5:15 AM 59.0 °F 59.0 °F 100% 30.01 in 0.2 mi South 4.6 mph - N/A   Heavy Drizzle
5:35 AM 59.0 °F 59.0 °F 100% 30.01 in 0.2 mi South 4.6 mph - N/A Rain Rain
5:55 AM 59.0 °F 59.0 °F 100% 30.00 in 0.2 mi South 5.8 mph - N/A   Heavy Drizzle
6:15 AM 59.0 °F 59.0 °F 100% 30.00 in 0.2 mi South 6.9 mph - N/A   Heavy Drizzle
6:35 AM 59.0 °F 59.0 °F 100% 29.99 in 0.2 mi South 6.9 mph - N/A   Heavy Drizzle
6:55 AM 59.0 °F 59.0 °F 100% 29.99 in 0.2 mi South 6.9 mph - 0.01 in   Heavy Drizzle
7:15 AM 59.0 °F 59.0 °F 100% 29.98 in 0.2 mi South 4.6 mph - 0.01 in   Heavy Drizzle
7:35 AM 59.0 °F 59.0 °F 100% 29.98 in 0.2 mi SSE 5.8 mph - 0.01 in   Heavy Drizzle
7:55 AM 59.0 °F 59.0 °F 100% 29.98 in 0.2 mi SSE 6.9 mph - N/A   Heavy Drizzle
8:15 AM 59.0 °F 59.0 °F 100% 29.97 in 0.2 mi SSE 6.9 mph - N/A   Heavy Drizzle
8:35 AM 59.0 °F 59.0 °F 100% 29.97 in 0.2 mi SSE 4.6 mph - N/A   Heavy Drizzle
8:55 AM 59.0 °F 59.0 °F 100% 29.97 in 0.2 mi SSE 4.6 mph - 0.01 in   Heavy Drizzle
9:15 AM 59.0 °F 59.0 °F 100% 29.97 in 0.2 mi SSE 5.8 mph - 0.01 in   Heavy Drizzle
9:35 AM 59.0 °F 59.0 °F 100% 29.96 in 0.2 mi SSE 9.2 mph - 0.01 in   Heavy Drizzle
9:55 AM 59.0 °F 59.0 °F 100% 29.96 in 0.2 mi SSE 8.1 mph 16.1 mph 0.01 in Rain Heavy Rain
10:15 AM 59.0 °F 59.0 °F 100% 29.95 in 0.2 mi SSE 9.2 mph - 0.01 in Rain Heavy Rain
10:35 AM 59.0 °F 59.0 °F 100% 29.96 in 0.2 mi SSE 8.1 mph - 0.01 in Rain Heavy Rain
10:55 AM 59.0 °F 59.0 °F 100% 29.94 in 0.2 mi SSE 8.1 mph - N/A Rain Heavy Rain
11:15 AM 59.0 °F 59.0 °F 100% 29.94 in 0.2 mi SSE 5.8 mph - N/A Rain Heavy Rain
11:35 AM 59.0 °F 59.0 °F 100% 29.94 in 0.2 mi South 6.9 mph - N/A Rain Rain
11:55 AM 59.0 °F 59.0 °F 100% 29.93 in 0.2 mi South 6.9 mph - N/A Rain Heavy Rain
12:15 PM 59.0 °F 59.0 °F 100% 29.92 in 0.2 mi South 5.8 mph - 0.01 in Rain Heavy Rain
12:35 PM 59.0 °F 59.0 °F 100% 29.91 in 0.2 mi South 6.9 mph - 0.02 in Rain Heavy Rain
12:55 PM 59.0 °F 59.0 °F 100% 29.91 in 0.2 mi South 5.8 mph - N/A Rain Rain
1:15 PM 60.8 °F 60.8 °F 100% 29.90 in 0.2 mi South 9.2 mph - 0.02 in Rain Heavy Rain
1:35 PM 59.0 °F 59.0 °F 100% 29.90 in 0.2 mi South 13.8 mph 21.9 mph 0.03 in Rain Rain
1:55 PM 60.8 °F 60.8 °F 100% 29.89 in 0.2 mi South 8.1 mph 17.3 mph 0.04 in Rain Rain
2:15 PM 60.8 °F 60.8 °F 100% 29.88 in 0.2 mi South 10.4 mph - 0.13 in Rain Rain
2:35 PM 60.8 °F 60.8 °F 100% 29.87 in 0.2 mi South 5.8 mph - 0.20 in Rain Rain
2:55 PM 60.8 °F 60.8 °F 100% 29.87 in 1.5 mi SSW 9.2 mph - 0.04 in Rain Heavy Rain
3:15 PM 60.8 °F 60.8 °F 100% 29.85 in 4.0 mi SSW 12.7 mph 19.6 mph 0.10 in Rain Rain
3:35 PM 59.0 °F 59.0 °F 100% 29.85 in 10.0 mi SSW 15.0 mph 25.3 mph 0.18 in Rain Rain
3:55 PM 59.0 °F 59.0 °F 100% 29.85 in 10.0 mi SW 20.7 mph 27.6 mph 0.03 in Rain Light Rain
4:15 PM 55.4 °F 55.4 °F 100% 29.86 in 1.2 mi WNW 15.0 mph 18.4 mph 0.33 in Rain Heavy Rain
4:35 PM 55.4 °F 55.4 °F 100% 29.84 in 0.5 mi NW 12.7 mph - 0.47 in Rain Heavy Rain
4:55 PM 55.4 °F 55.4 °F 100% 29.84 in 0.2 mi NW 11.5 mph - 0.01 in Rain Light Rain
5:15 PM 55.4 °F 55.4 °F 100% 29.84 in 0.2 mi NW 6.9 mph - 0.03 in Rain Rain
5:35 PM 55.4 °F 55.4 °F 100% 29.85 in 0.2 mi WNW 6.9 mph - 0.04 in   Drizzle
5:55 PM 55.4 °F 55.4 °F 100% 29.85 in 0.2 mi WNW 9.2 mph - 0.01 in   Heavy Drizzle
6:15 PM 55.4 °F 55.4 °F 100% 29.85 in 0.2 mi West 6.9 mph - 0.03 in Rain Rain
6:35 PM 55.4 °F 55.4 °F 100% 29.85 in 0.2 mi West 9.2 mph - 0.03 in   Drizzle
6:55 PM 55.4 °F 55.4 °F 100% 29.85 in 0.2 mi West 10.4 mph - N/A   Drizzle
7:15 PM 53.6 °F 53.6 °F 100% 29.85 in 0.2 mi West 9.2 mph - N/A   Drizzle
7:35 PM 55.4 °F 55.4 °F 100% 29.86 in 0.2 mi West 9.2 mph - N/A   Drizzle
7:55 PM 53.6 °F 53.6 °F 100% 29.86 in 0.2 mi West 9.2 mph - N/A   Drizzle
8:15 PM 53.6 °F 53.6 °F 100% 29.87 in 0.2 mi West 10.4 mph - N/A   Drizzle
8:35 PM 53.6 °F 53.6 °F 100% 29.88 in 0.2 mi West 10.4 mph 16.1 mph N/A   Drizzle
8:55 PM 53.6 °F 53.6 °F 100% 29.88 in 0.2 mi West 9.2 mph - N/A   Drizzle
9:15 PM 53.6 °F 53.6 °F 100% 29.88 in 0.2 mi West 10.4 mph - N/A   Drizzle
9:35 PM 53.6 °F 53.6 °F 100% 29.88 in 0.2 mi West 12.7 mph 16.1 mph N/A   Drizzle
9:55 PM 53.6 °F 53.6 °F 100% 29.89 in 0.2 mi West 11.5 mph - N/A   Drizzle
10:15 PM 53.6 °F 53.6 °F 100% 29.89 in 0.5 mi WNW 11.5 mph - N/A   Light Drizzle
10:35 PM 53.6 °F 53.6 °F 100% 29.89 in 0.2 mi WNW 13.8 mph - N/A   Light Drizzle
10:55 PM 53.6 °F 53.6 °F 100% 29.89 in 0.2 mi WNW 11.5 mph 18.4 mph N/A Fog Fog
11:15 PM 53.6 °F 53.6 °F 100% 29.89 in 1.2 mi WNW 10.4 mph - N/A   Overcast
11:35 PM 53.6 °F 53.6 °F 100% 29.89 in 0.2 mi WNW 8.1 mph - N/A Fog Fog
11:55 PM 53.6 °F 53.6 °F 100% 29.89 in 0.2 mi WNW 9.2 mph - N/A Fog Fog